Weather in Krasnaya Polyana

Russia / Krasnoyarsk Krai     55°57′02″N   90°39′47″E
temp.,
°C
wind,
m/s
gust,
m/s
humid.,
%
clouds,
%
prec.,
mm/h
press.,
hPa
HPBL,
m
18 may, tue
tue1801:00+7sse0076100 0.0 101310
04:00+8sse2282100 0.0 101043
07:00+9sse2589100 0.0 1007138
10:00+12ssw3885100 0.8 1002524
13:00+11ese2498100 15.8 998196
16:00+7nne61093100 15.6 1003534
19:00+7n479192 15.6 1007595
22:00+5nnw11937 0.0 100910
19 may, wed
wed1901:00+4ssw019335 0.0 100910
04:00+4ne1193100 0.0 100812
07:00+5ne2490100 0.0 1006163
10:00+7nne3465100 0.0 1005500
13:00+10n4450100 0.0 10051216
16:00+12nnw553924 0.0 10042127
19:00+9nnw6949100 0.0 1006848
22:00+6nnw3955100 0.0 1007290
20 may, thu
thu2001:00+3nnw4106297 0.0 1008348
04:00+1nnw396693 0.0 1008336
07:00+2n366599 0.0 1009410
10:00+5nnw5651100 0.0 10101421
13:00+7nnw5539100 0.0 10092339
16:00+8nnw5547100 0.1 10101797
19:00+7nnw355181 0.3 10121631
22:00+3nw3673100 0.1 1013120
21 may, fri
fri2101:00+2nw3880100 0.1 1014242
04:00+3nw3897100 0.1 1014695
07:00+3nnw3797100 0.3 1017461
10:00+8nnw5667100 0.1 1018937
13:00+12nnw564858 0.1 10181816
16:00+12nw6648100 0.0 10191863
19:00+12wnw5849100 0.0 10201075
22:00+7w3867100 0.0 1022158
22 may, sat
sat2201:00+6w3865100 0.0 1022212
04:00+6wsw51264100 0.0 1021447
07:00+7wsw61165100 0.1 10211111
10:00+5sw71594100 1.4 10191082
13:00+5wsw81589100 3.3 10171090
16:00+5wsw71591100 0.8 1017909
19:00+6w71692100 1.4 1016727
22:00+7w51496100 0.6 1016568